DW1384 Weather Reports


time (UTC)temp
C
wind
direction
speed
KPH
gust
KPH
rain 1hr
cm
rain 24hr
cm
rain mn
cm
humidity
%
barometer
mb
20260906220843 11 131 0.0 0.0 0.00 0.00 0.00 86 1022.6
20260906220345 11 131 0.0 0.0 0.00 0.00 0.00 86 1022.6
20260906215843 11 131 0.0 0.0 0.00 0.00 0.00 86 1022.8
20260906215341 11 131 0.0 0.0 0.00 0.00 0.00 86 1022.9
20260906214840 11 131 0.0 0.0 0.00 0.00 0.00 86 1022.9
20260906214340 11 131 0.0 0.0 0.00 0.00 0.00 86 1022.9
20260906214324 11 131 0.0 0.0 0.00 0.00 0.00 86 1022.9
20260906213340 11 131 0.0 0.0 0.00 0.00 0.00 86 1022.9
20260906212840 11 131 0.0 0.0 0.00 0.00 0.00 86 1022.9
20260906212335 11 131 0.0 0.0 0.00 0.00 0.00 86 1022.9
20260906211835 11 131 0.0 0.0 0.00 0.00 0.00 86 1022.9
20260906211336 11 131 0.0 0.0 0.00 0.00 0.00 86 1023.0
20260906210832 11 131 0.0 0.0 0.00 0.00 0.00 86 1023.0
20260906210332 12 131 0.0 0.0 0.00 0.00 0.00 86 1023.0
20260906205832 12 131 0.0 0.0 0.00 0.00 0.00 86 1023.0
20260906205332 12 131 0.0 0.0 0.00 0.00 0.00 85 1023.1
20260906204832 12 131 0.0 0.0 0.00 0.00 0.00 85 1023.1
20260906204551 12 131 0.0 0.0 0.00 0.00 0.00 85 1023.2
20260906203832 12 130 0.0 0.0 0.00 0.00 0.00 85 1023.2
20260906203331 12 131 0.0 0.0 0.00 0.00 0.00 85 1023.3
20260906202832 12 130 0.0 0.0 0.00 0.00 0.00 85 1023.2
20260906202550 12 130 0.0 0.0 0.00 0.00 0.00 85 1023.2
20260906202053 12 130 0.0 0.0 0.00 0.00 0.00 84 1023.3
20260906201328 12 130 0.0 0.0 0.00 0.00 0.00 84 1023.4
20260906200827 12 130 0.0 0.0 0.00 0.00 0.00 84 1023.3
20260906200547 13 130 0.0 0.0 0.00 0.00 0.00 83 1023.4
20260906195829 13 153 0.0 0.0 0.00 0.00 0.00 83 1023.6
20260906195327 13 157 0.0 0.0 0.00 0.00 0.00 83 1023.6
20260906194828 13 157 0.0 0.0 0.00 0.00 0.00 83 1023.6
20260906194327 13 157 0.0 0.0 0.00 0.00 0.00 83 1023.7
20260906194044 13 157 0.0 0.0 0.00 0.00 0.00 82 1023.5
20260906193323 13 157 0.0 0.0 0.00 0.00 0.00 82 1023.6
20260906192823 13 157 0.0 0.0 0.00 0.00 0.00 82 1023.6
20260906192323 13 157 0.0 0.0 0.00 0.00 0.00 82 1023.6
20260906191825 14 157 0.0 0.0 0.00 0.00 0.00 81 1023.7
20260906191325 14 157 0.0 0.0 0.00 0.00 0.00 81 1023.6
20260906190823 14 157 0.0 0.0 0.00 0.00 0.00 81 1023.7
20260906190323 14 157 0.0 0.0 0.00 0.00 0.00 81 1023.8
20260906190041 14 157 0.0 0.0 0.00 0.00 0.00 81 1023.8
20260906185320 14 157 0.0 0.0 0.00 0.00 0.00 81 1023.8
20260906184819 14 157 0.0 0.0 0.00 0.00 0.00 80 1023.8
20260906184320 15 157 0.0 0.0 0.00 0.00 0.00 80 1023.8
20260906183819 15 157 0.0 0.0 0.00 0.00 0.00 80 1023.8
20260906183548 15 157 0.0 0.0 0.00 0.00 0.00 79 1023.8
20260906182819 15 157 0.0 0.0 0.00 0.00 0.00 79 1023.8
20260906182545 15 176 0.0 0.0 0.00 0.00 0.00 78 1023.7
20260906181819 15 198 0.0 0.0 0.00 0.00 0.00 77 1023.7
20260906181541 16 199 0.0 0.0 0.00 0.00 0.00 77 1023.7
20260906180815 16 199 0.0 0.0 0.00 0.00 0.00 76 1023.6
20260906180315 16 199 0.0 0.0 0.00 0.00 0.00 75 1023.6
20260906175816 17 199 0.0 0.0 0.00 0.00 0.00 74 1023.6
20260906175316 17 199 0.0 0.0 0.00 0.00 0.00 74 1023.7
20260906174815 17 209 0.0 0.0 0.00 0.00 0.00 72 1023.7
20260906174533 18 209 0.0 0.0 0.00 0.00 0.00 71 1023.7
20260906173815 18 209 0.0 0.0 0.00 0.00 0.00 69 1023.7
20260906173541 18 209 0.0 0.0 0.00 0.00 0.00 67 1023.7
20260906172816 19 209 0.0 0.0 0.00 0.00 0.00 64 1023.8
20260906172311 20 209 0.0 0.0 0.00 0.00 0.00 63 1023.8
20260906171812 20 209 0.0 0.0 0.00 0.00 0.00 59 1023.8
20260906171311 20 209 0.0 0.0 0.00 0.00 0.00 58 1023.7
20260906170814 21 209 0.0 0.0 0.00 0.00 0.00 58 1023.8
20260906170312 21 209 0.0 0.0 0.00 0.00 0.00 55 1023.8
20260906165813 21 209 0.0 0.0 0.00 0.00 0.00 57 1023.9
20260906165311 21 209 0.0 0.0 0.00 0.00 0.00 56 1023.8
20260906164811 21 209 0.0 0.0 0.00 0.00 0.00 54 1023.8
20260906164539 21 208 0.0 0.0 0.00 0.00 0.00 57 1023.8
20260906163809 21 208 0.0 0.0 0.00 0.00 0.00 52 1023.7
20260906163309 21 207 0.0 0.0 0.00 0.00 0.00 52 1023.8
20260906162808 21 207 0.0 0.0 0.00 0.00 0.00 51 1023.8
20260906162307 21 207 0.0 0.0 0.00 0.00 0.00 48 1023.7
20260906161807 21 183 0.0 0.0 0.00 0.00 0.00 51 1023.7
20260906161307 21 201 0.0 0.0 0.00 0.00 0.00 49 1023.8
20260906161029 21 165 0.0 0.0 0.00 0.00 0.00 52 1023.8
20260906160752 21 158 0.0 0.0 0.00 0.00 0.00 51 1023.8
20260906160027 21 156 0.0 0.0 0.00 0.00 0.00 51 1023.8
20260906155306 22 174 0.0 0.0 0.00 0.00 0.00 51 1023.9
20260906155021 22 159 0.0 0.0 0.00 0.00 0.00 50 1023.9
20260906154304 22 176 0.0 0.0 0.00 0.00 0.00 50 1023.9
20260906153803 22 133 0.0 0.0 0.00 0.00 0.00 49 1023.9
20260906153305 22 172 0.0 0.0 0.00 0.00 0.00 48 1024.0
20260906152806 22 166 0.0 0.0 0.00 0.00 0.00 48 1024.0
20260906152307 22 180 0.0 0.0 0.00 0.00 0.00 48 1024.1
20260906151804 22 177 0.0 0.0 0.00 0.00 0.00 46 1024.2
20260906151522 22 146 0.0 0.0 0.00 0.00 0.00 48 1024.1
20260906150759 22 172 0.0 0.0 0.00 0.00 0.00 45 1024.1
20260906150300 22 161 0.0 0.0 0.00 0.00 0.00 46 1024.2
20260906145802 22 170 0.0 0.0 0.00 0.00 0.00 45 1024.1
20260906145259 22 172 0.0 0.0 0.00 0.00 0.00 44 1024.2
20260906144759 22 170 0.0 0.0 0.00 0.00 0.00 44 1024.2
20260906144525 22 174 0.0 0.0 0.00 0.00 0.00 48 1024.3
20260906143759 22 211 0.0 0.0 0.00 0.00 0.00 46 1024.3
20260906143259 21 163 0.0 0.0 0.00 0.00 0.00 45 1024.4
20260906143237 21 176 0.0 0.0 0.00 0.00 0.00 45 1024.5
20260906142257 21 154 0.0 0.0 0.00 0.00 0.00 45 1024.5
20260906141755 22 166 0.0 0.0 0.00 0.00 0.00 43 1024.5
20260906141307 22 211 0.0 0.0 0.00 0.00 0.00 46 1024.5
20260906140756 22 174 0.0 0.0 0.00 0.00 0.00 45 1024.5
20260906140517 22 263 0.0 0.0 0.00 0.00 0.00 44 1024.7
20260906135757 22 190 0.0 0.0 0.00 0.00 0.00 43 1024.7
20260906135518 22 150 0.0 0.0 0.00 0.00 0.00 42 1024.8
20260906134756 22 183 0.0 0.0 0.00 0.00 0.00 44 1024.8
20260906134255 22 166 0.0 0.0 0.00 0.00 0.00 45 1024.9
20260906133809 22 132 0.0 0.0 0.00 0.00 0.00 45 1024.9
20260906133255 22 168 0.0 0.0 0.00 0.00 0.00 47 1024.9
20260906132757 22 109 0.0 0.0 0.00 0.00 0.00 48 1024.9
20260906132516 22 182 0.0 0.0 0.00 0.00 0.00 48 1025.0
20260906131755 22 144 0.0 0.0 0.00 0.00 0.00 48 1025.0
20260906131255 21 180 0.0 0.0 0.00 0.00 0.00 47 1025.2
20260906131015 21 210 0.0 0.0 0.00 0.00 0.00 47 1025.3
20260906130255 21 136 0.0 0.0 0.00 0.00 0.00 47 1025.3
20260906125755 21 179 0.0 0.0 0.00 0.00 0.00 49 1025.4
20260906125257 21 220 0.0 0.0 0.00 0.00 0.00 49 1025.3
20260906124757 21 166 0.0 0.0 0.00 0.00 0.00 48 1025.4
20260906124256 21 168 0.0 0.0 0.00 0.00 0.00 48 1025.4
20260906123755 21 204 0.0 0.0 0.00 0.00 0.00 50 1025.4
20260906123255 20 149 0.0 0.0 0.00 0.00 0.00 53 1025.4
20260906122751 21 185 0.0 0.0 0.00 0.00 0.00 53 1025.4
20260906122512 20 214 0.0 0.0 0.00 0.00 0.00 53 1025.5
20260906121750 20 198 0.0 0.0 0.00 0.00 0.00 52 1025.7
20260906121249 21 130 0.0 0.0 0.00 0.00 0.00 52 1025.7
20260906121008 20 167 0.0 0.0 0.00 0.00 0.00 52 1025.8
20260906120243 20 177 0.0 0.0 0.00 0.00 0.00 52 1025.7
20260906115734 20 194 0.0 0.0 0.00 0.00 0.00 51 1025.8
20260906115234 20 133 0.0 0.0 0.00 0.00 0.00 50 1025.9
20260906114952 20 94 0.0 0.0 0.00 0.00 0.00 48 1026.0
20260906114719 20 166 0.0 0.0 0.00 0.00 0.00 49 1026.0
20260906113733 20 168 0.0 0.0 0.00 0.00 0.00 48 1026.0
20260906113233 20 188 0.0 0.0 0.00 0.00 0.00 50 1026.1
20260906112947 20 133 0.0 0.0 0.00 0.00 0.00 55 1026.1
20260906112228 20 135 0.0 0.0 0.00 0.00 0.00 56 1026.1
20260906111731 20 109 0.0 0.0 0.00 0.00 0.00 57 1026.1
20260906111227 18 180 0.0 0.0 0.00 0.00 0.00 57 1026.2
20260906110727 19 151 0.0 0.0 0.00 0.00 0.00 58 1026.4
20260906110228 19 261 0.0 0.0 0.00 0.00 0.00 59 1026.4
20260906110214 18 169 0.0 0.0 0.00 0.00 0.00 58 1026.4
20260906105445 18 131 0.0 0.0 0.00 0.00 0.00 61 1026.4
20260906104721 19 86 0.0 0.0 0.00 0.00 0.00 61 1026.6
20260906104221 18 168 0.0 0.0 0.00 0.00 0.00 65 1026.7
20260906103718 18 164 0.0 0.0 0.00 0.00 0.00 66 1026.8
20260906103215 18 101 0.0 0.0 0.00 0.00 0.00 67 1026.8
20260906102716 17 211 0.0 0.0 0.00 0.00 0.00 67 1027.0
20260906102215 17 150 0.0 0.0 0.00 0.00 0.00 69 1027.0
20260906101714 17 174 0.0 0.0 0.00 0.00 0.00 69 1027.0
20260906101221 17 176 0.0 0.0 0.00 0.00 0.00 70 1027.2
20260906100703 17 146 0.0 0.0 0.00 0.00 0.00 72 1027.2
20260906100156 17 149 0.0 0.0 0.00 0.00 0.00 73 1027.2
20260906095657 17 97 0.0 0.0 0.00 0.00 0.00 76 1027.3
20260906095158 16 95 0.0 0.0 0.00 0.00 0.00 77 1027.3
20260906094656 16 84 0.0 0.0 0.00 0.00 0.00 80 1027.4
20260906094155 16 47 0.0 0.0 0.00 0.00 0.00 83 1027.3
20260906093915 15 43 0.0 0.0 0.00 0.00 0.00 84 1027.5
20260906093155 15 33 0.0 0.0 0.00 0.00 0.00 88 1027.5
20260906092656 15 343 0.0 0.0 0.00 0.00 0.00 88 1027.6
20260906092417 14 311 0.0 0.0 0.00 0.00 0.00 89 1027.6
20260906091652 14 265 0.0 0.0 0.00 0.00 0.00 89 1027.6
20260906091152 13 286 0.0 0.0 0.00 0.00 0.00 89 1027.6
20260906090648 13 286 0.0 0.0 0.00 0.00 0.00 89 1027.7
20260906090147 13 6 0.0 0.0 0.00 0.00 0.00 90 1027.7
20260906085647 13 7 0.0 0.0 0.00 0.00 0.00 90 1027.7
20260906085403 13 9 0.0 0.0 0.00 0.00 0.00 90 1027.8
20260906084645 12 348 0.0 0.0 0.00 0.00 0.00 91 1027.9
20260906084143 12 14 0.0 0.0 0.00 0.00 0.00 91 1027.9
20260906083641 12 21 0.0 0.0 0.00 0.00 0.00 91 1027.8
20260906083139 11 23 0.0 0.0 0.00 0.00 0.00 91 1027.9
20260906082639 11 24 0.0 0.0 0.00 0.00 0.00 91 1027.9
20260906082134 11 24 0.0 0.0 0.00 0.00 0.00 91 1028.0
20260906081629 10 25 0.0 0.0 0.00 0.00 0.00 91 1028.0
20260906081122 10 3 0.0 0.0 0.00 0.00 0.00 91 1028.0
20260906080617 10 2 0.0 0.0 0.00 0.00 0.00 91 1028.1
20260906080114 9 56 0.0 0.0 0.00 0.00 0.00 91 1028.0
20260906075605 9 125 0.0 0.0 0.00 0.00 0.00 91 1028.0
20260906075058 9 125 0.0 0.0 0.00 0.00 0.00 91 1027.9
20260906074552 8 128 0.0 0.0 0.00 0.00 0.00 91 1028.0
20260906074046 8 128 0.0 0.0 0.00 0.00 0.00 91 1027.9
20260906073540 8 128 0.0 0.0 0.00 0.00 0.00 91 1027.8
20260906073034 7 127 0.0 0.0 0.00 0.00 0.00 91 1027.8
20260906072528 7 128 0.0 0.0 0.00 0.00 0.00 91 1027.8
20260906072023 7 157 0.0 0.0 0.00 0.00 0.00 91 1028.0
20260906071734 7 157 0.0 0.0 0.00 0.00 0.00 91 1027.9
20260906071232 7 157 0.0 0.0 0.00 0.00 0.00 91 1027.9
20260906070519 7 157 0.0 0.0 0.00 0.00 0.00 91 1027.9
20260906065958 7 151 0.0 0.0 0.00 0.00 0.00 91 1027.9
20260906065452 7 149 0.0 0.0 0.00 0.00 0.00 91 1028.0
20260906064952 7 149 0.0 0.0 0.00 0.00 0.00 91 1028.0
20260906064453 7 147 0.0 0.0 0.00 0.00 0.00 91 1027.9
20260906064218 7 145 0.0 0.0 0.00 0.00 0.00 91 1027.8
20260906063451 7 145 0.0 0.0 0.00 0.00 0.00 91 1027.9
20260906062949 7 145 0.0 0.0 0.00 0.00 0.00 91 1027.9
20260906062447 7 145 0.0 0.0 0.00 0.00 0.00 91 1027.9
20260906061947 7 145 0.0 0.0 0.00 0.00 0.00 91 1028.0
20260906061447 7 145 0.0 0.0 0.00 0.00 0.00 91 1027.9
20260906060946 6 149 0.0 0.0 0.00 0.00 0.00 91 1027.8
20260906060713 6 149 0.0 0.0 0.00 0.00 0.00 90 1027.8
20260906055944 6 149 0.0 0.0 0.00 0.00 0.00 90 1027.9
20260906055445 6 149 0.0 0.0 0.00 0.00 0.00 90 1027.8
20260906055200 6 147 0.0 0.0 0.00 0.00 0.00 90 1027.8
20260906054440 6 135 0.0 0.0 0.00 0.00 0.00 90 1027.7
20260906053939 6 134 0.0 0.0 0.00 0.00 0.00 90 1027.5
20260906053702 6 134 0.0 0.0 0.00 0.00 0.00 90 1027.5
20260906052937 6 131 0.0 0.0 0.00 0.00 0.00 90 1027.6
20260906052437 6 131 0.0 0.0 0.00 0.00 0.00 90 1027.6
20260906051931 6 131 0.0 0.0 0.00 0.00 0.00 90 1027.5
20260906051425 6 131 0.0 0.0 0.00 0.00 0.00 90 1027.5
20260906050925 6 130 0.0 0.0 0.00 0.00 0.00 90 1027.6
20260906050425 6 130 0.0 0.0 0.00 0.00 0.00 90 1027.5
20260906045925 6 130 0.0 0.0 0.00 0.00 0.00 90 1027.5
20260906045423 6 130 0.0 0.0 0.00 0.00 0.00 90 1027.6
20260906044923 6 131 0.0 0.0 0.00 0.00 0.00 90 1027.5
20260906044420 6 131 0.0 0.0 0.00 0.00 0.00 90 1027.6
20260906043919 6 131 0.0 0.0 0.00 0.00 0.00 90 1027.6
20260906043417 6 131 0.0 0.0 0.00 0.00 0.00 90 1027.6
20260906042915 6 131 0.0 0.0 0.00 0.00 0.00 90 1027.6
20260906042412 6 131 0.0 0.0 0.00 0.00 0.00 90 1027.7
20260906041912 6 131 0.0 0.0 0.00 0.00 0.00 90 1027.6
20260906041411 6 131 0.0 0.0 0.00 0.00 0.00 90 1027.6
20260906040922 6 131 0.0 0.0 0.00 0.00 0.00 90 1027.6
20260906040406 6 130 0.0 0.0 0.00 0.00 0.00 90 1027.6
20260906035906 6 130 0.0 0.0 0.00 0.00 0.00 90 1027.6
20260906035405 6 130 0.0 0.0 0.00 0.00 0.00 90 1027.4
20260906034904 6 130 0.0 0.0 0.00 0.00 0.00 90 1027.4
20260906034626 6 130 0.0 0.0 0.00 0.00 0.00 90 1027.4
20260906033905 6 130 0.0 0.0 0.00 0.00 0.00 90 1027.4
20260906033403 6 130 0.0 0.0 0.00 0.00 0.00 90 1027.3
20260906032916 6 130 0.0 0.0 0.00 0.00 0.00 90 1027.2
20260906032630 6 130 0.0 0.0 0.00 0.00 0.00 90 1027.2
20260906031900 6 130 0.0 0.0 0.00 0.00 0.00 90 1027.3
20260906031357 6 131 0.0 0.0 0.00 0.00 0.00 90 1027.2
20260906031338 6 131 0.0 0.0 0.00 0.00 0.00 90 1027.1
20260906030355 6 130 0.0 0.0 0.00 0.00 0.00 90 1027.2
20260906030337 6 130 0.0 0.0 0.00 0.00 0.00 90 1027.3
20260906025355 6 130 0.0 0.0 0.00 0.00 0.00 90 1027.4
20260906024857 6 130 0.0 0.0 0.00 0.00 0.00 90 1027.3
20260906024355 6 130 0.0 0.0 0.00 0.00 0.00 90 1027.3
20260906023854 6 130 0.0 0.0 0.00 0.00 0.00 90 1027.3
20260906023355 7 130 0.0 0.0 0.00 0.00 0.00 90 1027.4
20260906022855 7 130 0.0 0.0 0.00 0.00 0.00 90 1027.2
20260906022355 7 130 0.0 0.0 0.00 0.00 0.00 90 1027.1
20260906021855 7 131 0.0 0.0 0.00 0.00 0.00 90 1027.1
20260906021354 7 131 0.0 0.0 0.00 0.00 0.00 90 1027.1
20260906020854 7 131 0.0 0.0 0.00 0.00 0.00 89 1027.0
20260906020355 7 131 0.0 0.0 0.00 0.00 0.00 89 1027.0
20260906015855 7 131 0.0 0.0 0.00 0.00 0.00 90 1027.2
20260906015356 7 131 0.0 0.0 0.00 0.00 0.00 89 1027.1
20260906014854 7 131 0.0 0.0 0.00 0.00 0.00 89 1027.1
20260906014351 7 131 0.0 0.0 0.00 0.00 0.00 89 1027.2
20260906013850 7 131 0.0 0.0 0.00 0.00 0.00 89 1027.2
20260906013350 7 131 0.0 0.0 0.00 0.00 0.00 89 1027.1
20260906012851 7 131 0.0 0.0 0.00 0.00 0.00 89 1027.1
20260906012351 7 131 0.0 0.0 0.00 0.00 0.00 89 1027.1
20260906011850 7 131 0.0 0.0 0.00 0.00 0.00 89 1027.0
20260906011353 7 131 0.0 0.0 0.00 0.00 0.00 89 1026.9
20260906010848 7 131 0.0 0.0 0.00 0.00 0.00 89 1026.9
20260906010348 7 131 0.0 0.0 0.00 0.00 0.00 89 1026.9
20260906005849 7 131 0.0 0.0 0.00 0.00 0.00 89 1026.9
20260906005347 7 131 0.0 0.0 0.00 0.00 0.00 89 1026.9
20260906004846 8 130 0.0 0.0 0.00 0.00 0.00 89 1026.9
20260906004346 8 131 0.0 0.0 0.00 0.00 0.00 89 1027.0
20260906003846 8 132 0.0 0.0 0.00 0.00 0.00 89 1026.9
20260906003347 8 132 0.0 0.0 0.00 0.00 0.00 89 1026.9
20260906002846 8 132 0.0 0.0 0.00 0.00 0.00 89 1026.9
20260906002346 8 132 0.0 0.0 0.00 0.00 0.00 89 1026.9
20260906002110 8 132 0.0 0.0 0.00 0.00 0.00 89 1026.9
20260906001346 8 132 0.0 0.0 0.00 0.00 0.00 89 1026.9
20260906000843 8 132 0.0 0.0 0.00 0.00 0.00 89 1026.9
20260906000342 8 132 0.0 0.0 0.00 0.00 0.00 89 1026.9
20260905235842 8 132 0.0 0.0 0.00 0.00 0.00 89 1026.9
20260905235342 8 132 0.0 0.0 0.00 0.00 0.00 89 1027.0
20260905234843 8 132 0.0 0.0 0.00 0.00 0.00 88 1026.9
20260905234343 8 132 0.0 0.0 0.00 0.00 0.00 88 1026.8
20260905233843 8 132 0.0 0.0 0.00 0.00 0.00 88 1026.6
20260905233342 8 132 0.0 0.0 0.00 0.00 0.00 88 1026.7
20260905232842 9 132 0.0 0.0 0.00 0.00 0.00 88 1026.6
20260905232339 9 132 0.0 0.0 0.00 0.00 0.00 88 1026.6
20260905232056 9 132 0.0 0.0 0.00 0.00 0.00 88 1026.6
20260905231338 9 132 0.0 0.0 0.00 0.00 0.00 88 1026.6
20260905230838 9 132 0.0 0.0 0.00 0.00 0.00 88 1026.7
20260905230338 9 132 0.0 0.0 0.00 0.00 0.00 88 1026.7
20260905230109 10 132 0.0 0.0 0.00 0.00 0.00 88 1026.6
20260905225338 9 132 0.0 0.0 0.00 0.00 0.00 88 1026.6
20260905225056 9 132 0.0 0.0 0.00 0.00 0.00 88 1026.6
20260905224339 9 132 0.0 0.0 0.00 0.00 0.00 88 1026.5
20260905223839 10 132 0.0 0.0 0.00 0.00 0.00 87 1026.5
20260905223338 10 131 0.0 0.0 0.00 0.00 0.00 87 1026.4
20260905222838 10 132 0.0 0.0 0.00 0.00 0.00 87 1026.4
20260905222601 10 131 0.0 0.0 0.00 0.00 0.00 87 1026.3
20260905221839 10 131 0.0 0.0 0.00 0.00 0.00 87 1026.2
20260905221603 10 131 0.0 0.0 0.00 0.00 0.00 87 1026.2